Theta_e
323 327 336 344 337 337 340 343 342 343 349 345 344 339 339 347 348 342 335 335 334 333 332 331 328 328 328 328 328 328 328 328
324 327 339 343 340 336 341 341 342 343 344 342 341 339 340 348 346 343 335 335 334 333 332 331 330 329 328 328 328 328 328 327
324 331 340 339 342 341 342 341 342 345 347 343 342 340 343 347 345 346 337 333 333 332 330 329 329 328 327 327 327 327 327 327
321 330 338 340 340 341 340 340 342 346 348 345 341 341 343 344 346 347 347 335 327 326 326 326 327 326 326 326 326 327 328 330
320 324 336 340 341 341 339 339 343 346 347 344 341 341 341 342 346 349 347 344 326 324 325 325 325 325 326 327 328 330 330 328
320 323 338 335 338 339 339 340 342 341 343 346 344 340 338 341 345 342 341 333 328 326 325 326 327 328 328 329 329 325 322 318
321 335 337 336 335 340 337 340 340 341 343 345 341 337 338 338 343 341 341 340 330 330 328 329 329 329 328 326 321 318 317 333
323 336 334 335 336 340 337 338 339 341 341 339 339 338 337 335 338 339 343 339 337 333 331 327 331 323 321 319 317 318 319 330
325 328 336 335 337 338 335 336 340 341 340 339 338 337 337 336 337 336 340 339 339 339 337 337 337 334 326 323 324 327 327 325
326 327 331 327 337 337 336 338 340 340 340 341 341 338 337 336 336 337 338 338 339 339 337 339 338 333 332 332 332 332 330 330
325 326 328 328 333 337 337 336 338 337 337 341 342 340 337 336 337 335 336 336 339 338 336 340 337 335 334 333 333 331 331 332
325 325 325 326 332 336 335 338 338 338 335 341 342 339 337 335 336 334 333 332 338 338 336 338 334 335 334 333 332 332 333 333
324 325 323 326 324 328 337 337 336 338 338 341 342 339 337 336 335 335 332 331 335 334 332 334 335 334 333 333 334 334 334 335
321 324 324 324 321 324 336 336 337 336 340 340 340 340 339 338 337 333 332 331 332 334 333 329 335 335 334 335 336 336 336 336
322 324 323 321 321 325 332 337 337 336 339 341 340 340 340 338 340 340 334 332 331 333 333 333 334 332 333 337 338 336 336 336
321 322 322 323 323 324 328 331 336 336 340 343 345 344 342 340 339 337 341 339 333 333 334 337 337 339 339 339 337 336 335 334
324 326 324 323 324 325 329 330 333 341 343 346 344 343 345 342 335 333 338 340 340 336 339 339 342 341 342 340 339 337 336 333
325 327 326 325 326 328 327 328 332 344 343 341 343 340 337 336 335 334 330 339 343 347 345 340 344 343 343 340 338 337 335 334
324 324 323 327 327 327 326 327 342 343 343 344 341 336 335 338 334 331 343 344 348 346 346 346 344 344 344 340 338 336 334 332
324 322 321 325 323 325 325 325 335 340 343 339 334 336 347 347 344 342 339 343 346 345 344 343 342 340 338 336 335 333 333 331
Wind_Speed
4 3 5 6 7 7 7 11 18 7 15 8 10 27 26 20 18 13 19 19 17 16 15 15 14 13 12 10 8 7 5 5
2 7 4 7 13 4 8 11 33 27 8 15 19 23 25 24 16 11 20 18 17 16 15 14 13 12 11 9 8 6 5 4
3 5 2 6 26 15 15 13 26 32 14 14 16 22 28 20 11 16 17 15 15 14 13 13 13 12 11 9 8 7 5 4
5 2 5 5 23 27 29 28 26 27 19 11 22 26 23 16 24 17 15 11 12 14 14 13 13 12 11 10 8 6 5 4
10 7 3 9 29 14 15 41 17 29 9 20 26 23 22 18 22 21 13 8 12 14 14 14 13 12 11 9 8 7 5 5
9 9 4 4 15 34 20 12 13 29 8 20 27 24 22 20 21 13 7 11 14 14 14 14 13 11 10 9 8 7 7 7
13 4 6 14 6 8 5 23 45 12 34 35 25 22 21 21 20 15 10 7 14 15 14 13 12 10 10 9 9 9 11 12
17 3 4 6 19 23 21 20 39 20 27 26 27 26 23 19 24 16 20 11 8 13 9 14 10 8 8 9 10 11 14 11
24 14 16 11 28 17 27 14 7 11 19 23 24 30 21 22 27 18 22 17 15 13 9 9 12 6 6 9 10 10 13 9
29 20 6 8 20 11 15 11 28 20 19 24 23 28 23 23 27 20 23 19 17 16 13 15 13 9 7 6 5 3 5 11
28 27 7 4 14 13 16 18 22 10 26 29 26 19 23 23 24 23 23 20 22 23 19 12 12 9 8 7 6 10 11 11
24 22 21 2 29 26 24 24 13 15 31 24 25 19 23 25 27 27 24 21 24 24 20 17 18 16 16 15 12 13 15 17
9 13 7 11 6 9 34 28 27 16 33 37 32 23 23 21 26 23 22 22 23 22 18 26 23 21 17 16 13 15 16 18
8 13 21 6 9 10 34 31 29 27 34 42 39 28 24 21 19 17 20 20 21 20 16 18 23 23 20 18 14 13 18 19
13 19 8 8 9 10 21 36 30 29 31 42 31 20 25 30 19 12 5 18 19 17 15 13 15 17 18 16 19 20 22 23
11 11 12 7 7 9 23 18 35 33 23 40 32 31 24 26 16 12 6 11 18 17 13 10 15 15 17 19 20 21 19 18
11 5 8 9 7 10 14 8 9 33 39 37 34 24 22 27 23 8 19 15 15 25 16 16 21 22 20 22 18 19 22 22
8 10 4 9 7 3 6 8 9 32 32 32 30 29 26 25 25 20 17 35 18 17 17 22 27 24 24 18 13 14 17 18
8 12 6 4 1 3 11 14 30 34 30 26 24 26 25 18 20 20 15 11 27 26 18 18 20 17 13 9 8 11 14 16
12 7 4 3 5 6 8 10 15 26 37 39 36 32 24 19 18 16 15 13 17 18 11 8 5 3 4 4 5 9 12 13
Wind_Direction
165 196 192 157 223 202 272 305 126 98 105 68 106 126 140 153 143 152 149 142 141 140 141 140 142 144 143 136 133 125 116 104
96 274 261 185 212 220 278 294 113 104 77 121 140 139 149 157 159 169 150 146 146 148 146 145 144 143 143 142 140 137 139 126
308 247 170 44 35 305 318 275 109 110 107 92 142 144 148 151 158 137 133 146 150 149 150 147 150 150 148 148 152 151 145 131
276 87 203 71 82 287 328 300 126 117 118 109 134 139 154 158 164 155 150 136 157 154 156 155 155 152 155 159 152 145 142 136
294 306 155 158 157 177 227 274 132 129 122 140 146 153 155 163 166 161 157 184 172 163 161 160 160 161 163 157 156 154 149 139
282 296 281 188 156 120 181 323 125 141 148 155 154 152 156 163 159 160 170 153 170 163 162 165 166 166 166 162 158 152 135 118
275 287 223 208 99 48 21 355 343 170 147 152 149 150 161 152 156 159 186 159 172 168 167 168 166 168 164 160 155 143 129 116
268 187 223 228 126 136 94 354 295 68 126 143 149 158 156 168 175 177 182 166 160 147 150 162 136 150 164 162 155 147 145 142
275 265 193 211 153 146 131 184 195 255 144 157 160 168 174 175 182 179 192 184 180 159 159 179 163 167 189 165 171 167 167 180
268 282 205 343 171 111 142 203 157 262 191 166 183 183 182 178 185 181 187 191 179 166 169 209 184 173 182 173 192 212 249 231
282 292 245 194 97 132 135 160 133 223 238 175 195 193 190 182 184 177 175 178 174 163 182 181 181 169 168 176 210 228 246 233
265 285 300 208 134 130 183 162 157 144 202 214 217 212 180 176 177 173 175 184 187 185 197 172 170 170 177 190 215 233 235 243
294 268 265 279 297 161 177 180 169 105 249 242 242 215 175 165 173 179 178 189 197 199 200 205 183 185 196 199 198 231 248 255
272 266 254 225 261 284 178 168 174 181 204 224 225 214 168 136 115 147 180 192 198 204 209 207 218 219 214 215 222 230 234 245
271 253 202 171 236 253 181 186 194 190 207 212 217 155 138 154 129 69 139 189 204 211 219 236 236 225 222 209 221 232 237 247
255 264 175 194 214 246 262 243 205 210 86 119 122 138 139 150 141 180 343 275 212 214 221 228 243 215 210 212 219 227 244 256
282 303 144 195 209 247 273 260 175 96 102 108 111 127 174 190 150 143 199 225 241 198 201 212 206 209 209 219 224 239 264 271
308 337 89 200 224 226 277 298 166 107 104 119 132 132 131 148 183 212 195 211 241 228 218 214 214 227 225 228 243 270 270 283
294 312 325 140 303 283 293 302 107 105 107 105 120 135 140 144 179 175 155 186 226 234 227 228 236 212 216 232 254 261 264 286
289 322 278 131 253 251 242 252 105 103 117 119 123 126 121 131 145 167 184 191 222 238 250 237 209 209 206 243 233 254 270 285